Miscellaneous Local Product
Issued by NWS North Platte, NE

Home | Current Version | Previous Version | Text Only | Print | Product List | Glossary On
Versions: 1 2 3 4 5 6 7 8 9 10 11 12 13 14 15 16 17 18 19 20 21 22 23 24 25 26 27 28 29 30 31 32 33 34 35 36 37 38 39 40 41 42 43 44 45 46 47 48 49 50
078
AXUS43 KLBF 161410
MISLBF


WESTERN AND NORTH CENTRAL NEBRASKA HOURLY WEATHER ROUNDUP
NATIONAL WEATHER SERVICE NORTH PLATTE NE
800 AM CST SAT DEC 16 2017

NOTE: "FAIR" INDICATES FEW OR NO CLOUDS BELOW 12,000 FEET WITH NO
SIGNIFICANT WEATHER AND/OR OBSTRUCTIONS TO VISIBILITY.

NOTE: STATIONS NOT REPORTING VARIABLES SUCH AS SKY/WEATHER OR
PRESSURE ARE PROVIDED BY RAWS AND APRS NETWORKS AND ARE NOT UNDER
NATIONAL WEATHER SERVICE QUALITY CONTROL.

...OBSERVATIONS IN AND NEAR THE EASTERN PANHANDLE OF NEBRASKA...

CITY           SKY/WX    TMP DP  RH WIND       PRES   REMARKS
PINE RIDGE     CLOUDY    37  23  56 N12       29.87R WCI  29
GORDON         FAIR      29  23  76 NW5       29.85R WCI  24
CHADRON        CLOUDY    29  19  66 CALM      29.87R
ALLIANCE       CLOUDY    29  15  56 NE6       29.81R WCI  23
SIDNEY         CLOUDY    30   8  39 NW8       29.80R WCI  22
CRESCENT LAKE    N/A     50  16  26 N6          N/A
$$

...OBSERVATIONS IN NORTHERN NEBRASKA AND FAR SOUTHERN SOUTH DAKOTA...

CITY           SKY/WX    TMP DP  RH WIND       PRES   REMARKS
WINNER         FAIR      33  23  66 W7        29.82R WCI  27
VALENTINE      CLOUDY    33  25  72 W7        29.83R WCI  27
THEDFORD       CLOUDY    35  24  64 NW3       29.81R
AINSWORTH      CLOUDY    34  27  75 NW8       29.81R WCI  27
O`NEILL        CLOUDY    35  27  71 NW8       29.80R WCI  28
ORD            CLOUDY    30  24  78 NW9       29.79R WCI  22
BROKEN BOW     PTCLDY    36  22  56 N6        29.80R WCI  31
VALENTINE NWR    N/A     33  23  66 NW7         N/A  WCI  27
HALSEY           N/A     35  20  55 NW5         N/A  WCI  31
BUTTE            N/A     34  25  68 N3          N/A
EWING            N/A     32  26  78 CALM        N/A
$$

...OBSERVATIONS IN SOUTHWEST NEBRASKA AND FAR NORTHEAST COLORADO...

CITY           SKY/WX    TMP DP  RH WIND       PRES   REMARKS
WRAY           FAIR      27  12  54 W5        29.78R WCI  21
HOLYOKE        FAIR      28  16  59 NW3       29.79R
IMPERIAL       CLOUDY    27  15  61 NW6       29.78R WCI  20
OGALLALA       CLOUDY    24  16  71 W3        29.80R
NORTH PLATTE   CLOUDY    28  21  75 NW6       29.80R WCI  22
MCCOOK         CLOUDY    23  13  65 SW3       29.76R
LEXINGTON      CLOUDY    32  21  63 NW7       29.78R WCI  26
STAPLETON        N/A     34  19  54 CALM        N/A
GOTHENBURG       N/A     32  17  55 W5          N/A  WCI  27
CALLAWAY         N/A     38  21  51 N7          N/A  WCI  33
$$

...OBSERVATIONS IN CENTRAL LINCOLN COUNTY AREA...

CITY           SKY/WX    TMP DP  RH WIND       PRES   REMARKS
N.P. AIRPORT   CLOUDY    28  21  75 NW6       29.80R WCI  22
N.P. DOWNTOWN    N/A     30  20  66 CALM        N/A
N.P. SOUTHEAST   N/A     31  20  62 CALM        N/A
N.P. HILLCREST   N/A     34  20  57 CALM        N/A
$$

...SOME OBSERVATIONS FROM AROUND THE REGION...

CITY           SKY/WX    TMP DP  RH WIND       PRES   REMARKS
DENVER         CLOUDY    38  18  44 SE6       29.77R WCI  33
GRAND JUNCTION CLOUDY    24   9  52 NE6       29.88F WCI  17
LARAMIE        CLOUDY    30   7  37 CALM      29.81R
CHEYENNE       CLOUDY    40   7  25 N15       29.80S WCI  32
CASPER         CLOUDY    32  20  61 N10       29.86R WCI  24
BISMARCK       CLOUDY    35  32  88 NW9       29.83R WCI  28
RAPID CITY     MOCLDY    34  25  69 N15       29.87R WCI  24
PIERRE         CLOUDY    33  28  81 NW12      29.83R WCI  24
SIOUX FALLS    PTCLDY    30  25  81 S3        29.76R
OMAHA          CLOUDY    31  21  66 SE5       29.79R WCI  26
GRAND ISLAND   PTCLDY    28  21  75 W6        29.78R WCI  22
SCOTTSBLUFF    CLOUDY    32  12  43 W6        29.83R WCI  26
KANSAS CITY    PTCLDY    36  24  62 SW13G21   29.86R WCI  27
HILL CITY      CLEAR     24  13  62 W3        29.75S
WICHITA        CLOUDY    34  26  72 S15       29.89R WCI  24
DODGE CITY     CLOUDY    29  19  66 S14       29.78S WCI  18
OKLAHOMA CITY  CLOUDY    33  23  66 S8        30.00F WCI  26
DALLAS         CLOUDY    41  30  65 S9        30.12R
AMARILLO       CLEAR     29  21  72 SW13      29.85F WCI  19
$$




USA.gov is the U.S. government's official web portal to all federal, state and local government web resources and services.